Westminster, MD

8:54 PM EDT on March 22, 2017 (GMT -0400)
Carroll County Regional-Poage

Weather History for KDMW - March, 2014

Change the Weather History Date:

Monday, March 3, 2014

  Actual Average (KTHV) Record (KTHV)
Temperature  
Mean Temperature 19 °F -  
Max Temperature 30 °F 0 °F 69 °F (2008)
Min Temperature 8 °F - 0 °F (2014)
Degree Days  
Heating Degree Days 46    
Moisture  
Dew Point 7 °F    
Average Humidity 68    
Maximum Humidity 93    
Minimum Humidity 45    
Precipitation  
Precipitation 0.01 in - - ()
Sea Level Pressure  
Sea Level Pressure 30.18 in    
Wind  
Wind Speed 8 mph (North)    
Max Wind Speed 17 mph    
Max Gust Speed 25 mph    
Visibility 7 miles    
Events Snow    
Averages and records for this station are not official NWS values.
T = Trace of Precipitation, MM = Missing Value Source: NWS Daily Summary

Daily Weather History Graph

Daily Weather History Graph

Search for Another Location

Airport or City:

Trip Planner

Search our weather history database for the weather conditions in past years. The results will help you decide how hot, cold, wet, or windy it might be!

Date:

Astronomy

Mar. 03, 2014 Rise Set
Actual Time 6:38 AM EST 6:02 PM EST
Civil Twilight 6:11 AM EST 6:29 PM EST
Nautical Twilight 5:39 AM EST 7:00 PM EST
Astronomical Twilight 5:08 AM EST 7:31 PM EST
Moon 7:45 AM EST (3/3) 9:02 PM EST (3/3)
Length of Visible Light 12h 18m
Length of Day
11h 24m
Waxing Crescent, 8% of the Moon is Illuminated
Mar 3
Waxing Crescent
Mar 8
First Quarter
Mar 16
Full
Mar 23
Last Quarter
Mar 30
New

Hourly Weather History & Observations

Time (EST) Temp. Windchill Dew Point Humidity Pressure Visibility Wind Dir Wind Speed Gust Speed Precip Events Conditions
12:10 AM 30.2 °F 22.6 °F 28.4 °F 93% 30.00 in 2.0 mi North 8.1 mph - N/A Snow Light Snow
12:30 AM 30.2 °F 23.4 °F 28.4 °F 93% 30.01 in 1.0 mi North 6.9 mph - N/A Snow Light Snow
12:50 AM 28.4 °F 24.6 °F 26.6 °F 93% 30.01 in 0.8 mi North 3.5 mph - N/A Snow Snow
1:10 AM 28.4 °F 20.4 °F 26.6 °F 93% 30.01 in 1.2 mi NNE 8.1 mph - N/A Snow Light Snow
1:30 AM 28.4 °F 21.2 °F 26.6 °F 93% 30.01 in 1.2 mi NNE 6.9 mph - N/A Snow Light Snow
1:50 AM 26.6 °F 18.2 °F 24.8 °F 93% 30.02 in 1.0 mi North 8.1 mph - N/A Snow Snow
2:05 AM 26.6 °F 20.0 °F 24.8 °F 93% 30.02 in 1.0 mi North 5.8 mph - N/A Snow Snow
2:30 AM 26.6 °F 16.8 °F 24.8 °F 93% 30.02 in 1.2 mi NNE 10.4 mph - 0.01 in Snow Light Snow
2:50 AM 24.8 °F 16.1 °F 23.0 °F 93% 30.02 in 1.5 mi NNE 8.1 mph 16.1 mph N/A Snow Light Snow
3:10 AM 24.8 °F 17.9 °F 21.2 °F 86% 30.03 in 1.2 mi North 5.8 mph - N/A Snow Snow
3:30 AM 24.8 °F 15.3 °F 21.2 °F 86% 30.02 in 1.5 mi NNE 9.2 mph - N/A Snow Light Snow
3:50 AM 23.0 °F 14.7 °F 21.2 °F 93% 30.04 in 2.0 mi North 6.9 mph - N/A Snow Light Snow
4:10 AM 23.0 °F 12.4 °F 19.4 °F 86% 30.04 in 2.0 mi NNE 10.4 mph 17.3 mph N/A Snow Light Snow
4:30 AM 21.2 °F 11.7 °F 19.4 °F 93% 30.05 in 1.5 mi North 8.1 mph 18.4 mph N/A Snow Light Snow
4:50 AM 21.2 °F 10.1 °F 19.4 °F 93% 30.06 in 1.8 mi North 10.4 mph 16.1 mph N/A Snow Light Snow
5:10 AM 21.2 °F 9.5 °F 17.6 °F 86% 30.07 in 1.5 mi North 11.5 mph 18.4 mph N/A Snow Light Snow
5:30 AM 19.4 °F 5.5 °F 17.6 °F 93% 30.08 in 1.2 mi North 15.0 mph 20.7 mph N/A Snow Light Snow
5:50 AM 19.4 °F 6.0 °F 15.8 °F 86% 30.10 in 1.2 mi NNE 13.8 mph 21.9 mph N/A Snow Light Snow
6:10 AM 17.6 °F 3.7 °F 14.0 °F 86% 30.12 in 1.2 mi North 13.8 mph 20.7 mph N/A Snow Light Snow
6:30 AM 15.8 °F -0.2 °F 12.2 °F 86% 30.12 in 1.5 mi NNE 17.3 mph 21.9 mph N/A Snow Light Snow
6:50 AM 15.8 °F 0.9 °F 10.4 °F 79% 30.14 in 0.8 mi NNE 15.0 mph 25.3 mph N/A Snow Light Snow
7:10 AM 14.0 °F 3.9 °F 10.4 °F 86% 30.16 in 0.8 mi North 6.9 mph 17.3 mph N/A Snow Light Snow
7:30 AM 14.0 °F 1.2 °F 10.4 °F 86% 30.16 in 0.5 mi North 10.4 mph - N/A Snow Snow
7:50 AM 12.2 °F -0.2 °F 10.4 °F 92% 30.17 in 0.8 mi NNE 9.2 mph - N/A Snow Light Snow
8:10 AM 12.2 °F -1.8 °F 8.6 °F 85% 30.18 in 0.5 mi NNE 11.5 mph 17.3 mph N/A Snow Snow
8:30 AM 12.2 °F -0.2 °F 8.6 °F 85% 30.20 in 1.0 mi North 9.2 mph 16.1 mph N/A Snow Light Snow
8:50 AM 12.2 °F 0.7 °F 6.8 °F 79% 30.19 in 4.0 mi NNE 8.1 mph 18.4 mph N/A Snow Light Snow
9:10 AM 14.0 °F 0.5 °F 3.2 °F 62% 30.20 in 10.0 mi North 11.5 mph - N/A   Scattered Clouds
9:30 AM 14.0 °F 0.5 °F 1.4 °F 57% 30.20 in 10.0 mi North 11.5 mph - N/A   Scattered Clouds
9:50 AM 14.0 °F 2.0 °F 1.4 °F 57% 30.18 in 7.0 mi North 9.2 mph - N/A   Mostly Cloudy
10:10 AM 14.0 °F 2.9 °F 1.4 °F 57% 30.19 in 10.0 mi North 8.1 mph - N/A   Scattered Clouds
10:30 AM 14.0 °F 3.9 °F 1.4 °F 57% 30.20 in 10.0 mi NNW 6.9 mph - N/A   Scattered Clouds
10:50 AM 14.0 °F 2.9 °F -0.4 °F 53% 30.21 in 10.0 mi NNW 8.1 mph - N/A   Clear
11:10 AM 14.0 °F 0.5 °F -0.4 °F 53% 30.22 in 10.0 mi North 11.5 mph 16.1 mph N/A   Scattered Clouds
11:30 AM 15.8 °F 5.1 °F -0.4 °F 49% 30.22 in 10.0 mi NNW 8.1 mph - N/A   Scattered Clouds
11:50 AM 14.0 °F 1.2 °F -0.4 °F 53% 30.21 in 10.0 mi North 10.4 mph 16.1 mph N/A   Scattered Clouds
12:10 PM 15.8 °F 1.4 °F -2.2 °F 45% 30.21 in 5.0 mi North 13.8 mph 18.4 mph N/A   Haze
12:30 PM 15.8 °F 3.4 °F -0.4 °F 49% 30.20 in 10.0 mi North 10.4 mph 18.4 mph N/A   Clear
12:50 PM 15.8 °F 5.1 °F -0.4 °F 49% 30.21 in 10.0 mi North 8.1 mph 17.3 mph N/A   Clear
1:10 PM 15.8 °F 5.1 °F 1.4 °F 53% 30.21 in 10.0 mi NNW 8.1 mph - N/A   Clear
1:30 PM 15.8 °F 4.2 °F -0.4 °F 49% 30.21 in 10.0 mi NNW 9.2 mph - N/A   Clear
1:50 PM 15.8 °F 4.2 °F -0.4 °F 49% 30.20 in 10.0 mi NNW 9.2 mph - N/A   Clear
2:10 PM 15.8 °F 5.1 °F -0.4 °F 49% 30.21 in 10.0 mi North 8.1 mph - N/A   Clear
2:30 PM 15.8 °F 6.1 °F 1.4 °F 53% 30.21 in 10.0 mi North 6.9 mph - N/A   Clear
2:50 PM 17.6 °F 8.2 °F 1.4 °F 49% 30.21 in 10.0 mi NNW 6.9 mph - N/A   Clear
3:10 PM 17.6 °F 5.7 °F 1.4 °F 49% 30.22 in 10.0 mi North 10.4 mph - N/A   Clear
3:30 PM 17.6 °F 7.3 °F 1.4 °F 49% 30.23 in 10.0 mi NNW 8.1 mph - N/A   Clear
3:50 PM 15.8 °F 4.2 °F 1.4 °F 53% 30.23 in 10.0 mi North 9.2 mph - N/A   Clear
4:10 PM 17.6 °F 8.2 °F 1.4 °F 49% 30.25 in 10.0 mi North 6.9 mph - N/A   Clear
4:30 PM 15.8 °F 4.2 °F 1.4 °F 53% 30.24 in 10.0 mi North 9.2 mph - N/A   Clear
4:50 PM 15.8 °F 5.1 °F 1.4 °F 53% 30.24 in 10.0 mi North 8.1 mph - N/A   Scattered Clouds
5:10 PM 15.8 °F 6.1 °F 1.4 °F 53% 30.24 in 10.0 mi NNW 6.9 mph - N/A   Scattered Clouds
5:30 PM 17.6 °F 7.3 °F 1.4 °F 49% 30.25 in 10.0 mi North 8.1 mph - N/A   Clear
5:50 PM 15.8 °F 6.1 °F 1.4 °F 53% 30.26 in 10.0 mi North 6.9 mph - N/A   Clear
6:10 PM 15.8 °F 7.2 °F 1.4 °F 53% 30.26 in 10.0 mi North 5.8 mph - N/A   Clear
6:30 PM 15.8 °F 10.2 °F 1.4 °F 53% 30.27 in 10.0 mi NNW 3.5 mph - N/A   Clear
6:50 PM 14.0 °F 6.5 °F 1.4 °F 57% 30.28 in 10.0 mi NW 4.6 mph - N/A   Clear
7:10 PM 14.0 °F 8.2 °F 1.4 °F 57% 30.29 in 10.0 mi NW 3.5 mph - N/A   Clear
7:30 PM 12.2 °F - -0.4 °F 57% 30.29 in 10.0 mi Calm Calm - N/A   Scattered Clouds
7:50 PM 12.2 °F - 1.4 °F 62% 30.29 in 10.0 mi Calm Calm - N/A   Scattered Clouds
8:10 PM 12.2 °F - 1.4 °F 62% 30.29 in 10.0 mi Calm Calm - N/A   Clear
8:30 PM 12.2 °F 6.1 °F 1.4 °F 62% 30.29 in 10.0 mi North 3.5 mph - N/A   Clear
8:50 PM 10.4 °F - 1.4 °F 67% 30.30 in 10.0 mi Calm Calm - N/A   Clear
9:10 PM 12.2 °F - 1.4 °F 62% 30.31 in 10.0 mi Calm Calm - N/A   Clear
9:30 PM 12.2 °F - 1.4 °F 62% 30.31 in 10.0 mi Calm Calm - N/A   Clear
9:50 PM 12.2 °F 4.3 °F 1.4 °F 62% 30.32 in 10.0 mi NW 4.6 mph - N/A   Clear
10:10 PM 12.2 °F 6.1 °F 1.4 °F 62% 30.31 in 10.0 mi NW 3.5 mph - N/A   Clear
10:30 PM 12.2 °F - -0.4 °F 57% 30.31 in 10.0 mi Calm Calm - N/A   Clear
10:50 PM 8.6 °F - 1.4 °F 73% 30.31 in 10.0 mi Calm Calm - N/A   Clear
11:10 PM 12.2 °F 6.1 °F 1.4 °F 62% 30.31 in 10.0 mi NW 3.5 mph - N/A   Clear
11:30 PM 10.4 °F - -0.4 °F 62% 30.30 in 10.0 mi Calm Calm - N/A   Clear
11:50 PM 10.4 °F 0.8 °F -0.4 °F 62% 30.31 in 10.0 mi NW 5.8 mph - N/A   Clear